When you browse on this site, cookies collect data to enhance your experience and personalize the content and advertising you see.
Visit our Privacy Policy to learn more. By continuing to use the site, you agree to this use of cookies and data.

Tiempo cada hora Cherenok

Hoy, 9 Julio, Jueves

Tiempo Temperatura Precipitaciones Viento Presión Humedad
00:00 +14°C° 0.5 mm 6 mps 735 mmHg 95%
01:00 +13°C° 0.5 mm 6 mps 735 mmHg 95%
02:00 +13°C° 0.5 mm 5 mps 735 mmHg 95%
03:00 +13°C° 0.1 mm 5 mps 736 mmHg 95%
04:00 +13°C° 0.1 mm 6 mps 736 mmHg 94%
05:00 +11°C° 0.1 mm 6 mps 736 mmHg 94%
06:00 +13°C° 0 mm 6 mps 737 mmHg 90%
07:00 +14°C° 0 mm 6 mps 737 mmHg 86%
08:00 +15°C° 0 mm 6 mps 737 mmHg 83%
09:00 +16°C° 0 mm 5 mps 738 mmHg 79%
10:00 +19°C° 0 mm 5 mps 738 mmHg 75%
11:00 +20°C° 0 mm 5 mps 739 mmHg 71%
12:00 +20°C° 0.1 mm 4 mps 739 mmHg 70%
13:00 +21°C° 0.1 mm 4 mps 739 mmHg 68%
14:00 +21°C° 0.1 mm 3 mps 739 mmHg 66%
15:00 +20°C° 0.2 mm 4 mps 739 mmHg 70%
16:00 +20°C° 0.2 mm 4 mps 739 mmHg 74%
17:00 +19°C° 0.2 mm 5 mps 739 mmHg 77%
18:00 +18°C° 0 mm 4 mps 739 mmHg 81%
19:00 +16°C° 0 mm 3 mps 740 mmHg 85%
20:00 +15°C° 0 mm 2 mps 740 mmHg 89%
21:00 +14°C° 0 mm 2 mps 740 mmHg 90%
22:00 +14°C° 0 mm 2 mps 741 mmHg 91%
23:00 +12°C° 0 mm 3 mps 741 mmHg 92%

Mañana, 10 Julio, Viernes

Tiempo Temperatura Precipitaciones Viento Presión Humedad
00:00 +12°C° 0 mm 3 mps 741 mmHg 93%
01:00 +11°C° 0 mm 3 mps 742 mmHg 94%
02:00 +11°C° 0 mm 3 mps 742 mmHg 95%
03:00 +11°C° 0 mm 3 mps 742 mmHg 93%
04:00 +12°C° 0 mm 2 mps 743 mmHg 91%
05:00 +12°C° 0 mm 2 mps 743 mmHg 89%
06:00 +14°C° 0 mm 2 mps 743 mmHg 84%
07:00 +15°C° 0 mm 2 mps 744 mmHg 78%
08:00 +17°C° 0 mm 2 mps 744 mmHg 73%
09:00 +18°C° 0 mm 3 mps 744 mmHg 69%
10:00 +19°C° 0 mm 3 mps 744 mmHg 65%
11:00 +20°C° 0 mm 3 mps 744 mmHg 61%
12:00 +20°C° 0 mm 3 mps 744 mmHg 60%
13:00 +21°C° 0 mm 2 mps 744 mmHg 60%
14:00 +21°C° 0 mm 2 mps 744 mmHg 59%
15:00 +21°C° 0 mm 2 mps 744 mmHg 62%
16:00 +21°C° 0 mm 2 mps 744 mmHg 64%
17:00 +21°C° 0 mm 2 mps 744 mmHg 67%
18:00 +19°C° 0 mm 2 mps 744 mmHg 72%
19:00 +18°C° 0 mm 2 mps 744 mmHg 76%
20:00 +16°C° 0 mm 2 mps 744 mmHg 80%
21:00 +16°C° 0 mm 2 mps 745 mmHg 81%
22:00 +15°C° 0 mm 2 mps 745 mmHg 82%
23:00 +15°C° 0 mm 2 mps 745 mmHg 83%

Pasado mañana, 11 Julio, Sábado

Tiempo Temperatura Precipitaciones Viento Presión Humedad
00:00 +14°C° 0 mm 2 mps 745 mmHg 84%
01:00 +14°C° 0 mm 2 mps 745 mmHg 85%
02:00 +14°C° 0 mm 2 mps 745 mmHg 85%
03:00 +14°C° 0 mm 2 mps 745 mmHg 85%
04:00 +14°C° 0 mm 2 mps 745 mmHg 85%
05:00 +14°C° 0 mm 3 mps 745 mmHg 85%
06:00 +16°C° 0 mm 3 mps 745 mmHg 82%
07:00 +18°C° 0 mm 3 mps 745 mmHg 78%
08:00 +20°C° 0 mm 3 mps 746 mmHg 74%
09:00 +21°C° 0 mm 3 mps 745 mmHg 72%
10:00 +22°C° 0 mm 3 mps 745 mmHg 69%
11:00 +24°C° 0 mm 3 mps 745 mmHg 66%
12:00 +24°C° 0 mm 3 mps 745 mmHg 65%
13:00 +25°C° 0 mm 3 mps 745 mmHg 64%
14:00 +25°C° 0 mm 3 mps 745 mmHg 63%
15:00 +25°C° 0 mm 3 mps 744 mmHg 65%
16:00 +25°C° 0 mm 2 mps 744 mmHg 67%
17:00 +25°C° 0 mm 2 mps 744 mmHg 70%
18:00 +23°C° 0 mm 2 mps 744 mmHg 73%
19:00 +21°C° 0 mm 2 mps 744 mmHg 76%
20:00 +19°C° 0 mm 2 mps 744 mmHg 79%
21:00 +18°C° 0 mm 2 mps 744 mmHg 79%
22:00 +18°C° 0 mm 2 mps 744 mmHg 80%
23:00 +18°C° 0 mm 1 mps 744 mmHg 81%

12 Julio, Domingo

Tiempo Temperatura Precipitaciones Viento Presión Humedad
00:00 +18°C° 0 mm 1 mps 744 mmHg 82%
01:00 +16°C° 0 mm 2 mps 744 mmHg 83%
02:00 +16°C° 0 mm 2 mps 743 mmHg 84%
03:00 +16°C° 0 mm 1 mps 743 mmHg 84%
04:00 +18°C° 0 mm 1 mps 743 mmHg 84%
05:00 +18°C° 0 mm 1 mps 743 mmHg 85%
06:00 +20°C° 0 mm 1 mps 743 mmHg 80%
07:00 +21°C° 0 mm 1 mps 743 mmHg 75%
08:00 +23°C° 0 mm 1 mps 743 mmHg 70%
09:00 +24°C° 0 mm 1 mps 742 mmHg 66%
10:00 +24°C° 0 mm 2 mps 742 mmHg 62%
11:00 +25°C° 0 mm 2 mps 742 mmHg 58%
12:00 +26°C° 0 mm 2 mps 741 mmHg 57%
13:00 +26°C° 0 mm 2 mps 741 mmHg 57%
14:00 +27°C° 0 mm 2 mps 741 mmHg 56%
15:00 +27°C° 0 mm 2 mps 740 mmHg 61%
16:00 +26°C° 0 mm 2 mps 740 mmHg 66%
17:00 +26°C° 0 mm 2 mps 739 mmHg 71%
18:00 +25°C° 0.2 mm 2 mps 739 mmHg 76%
19:00 +23°C° 0.2 mm 2 mps 739 mmHg 81%
20:00 +21°C° 0.2 mm 2 mps 738 mmHg 86%
21:00 +20°C° 0.7 mm 2 mps 738 mmHg 89%
22:00 +20°C° 0.7 mm 3 mps 738 mmHg 92%
23:00 +19°C° 0.7 mm 3 mps 737 mmHg 94%

13 Julio, Lunes

Tiempo Temperatura Precipitaciones Viento Presión Humedad
00:00 +19°C° 0.2 mm 3 mps 737 mmHg 95%
01:00 +19°C° 0.2 mm 2 mps 736 mmHg 96%
02:00 +19°C° 0.2 mm 2 mps 736 mmHg 97%
03:00 +19°C° 0.6 mm 2 mps 735 mmHg 96%
04:00 +20°C° 0.6 mm 2 mps 735 mmHg 96%
05:00 +21°C° 0.6 mm 1 mps 735 mmHg 95%
06:00 +21°C° 0.4 mm 2 mps 734 mmHg 94%
07:00 +22°C° 0.4 mm 3 mps 734 mmHg 92%
08:00 +22°C° 0.4 mm 4 mps 734 mmHg 90%
09:00 +23°C° 1.2 mm 4 mps 734 mmHg 87%
10:00 +25°C° 1.2 mm 4 mps 733 mmHg 83%
11:00 +26°C° 1.2 mm 4 mps 733 mmHg 79%
12:00 +26°C° 2 mm 4 mps 733 mmHg 78%
13:00 +27°C° 2 mm 3 mps 732 mmHg 77%
14:00 +27°C° 2 mm 3 mps 732 mmHg 76%
15:00 +26°C° 0.7 mm 3 mps 732 mmHg 80%
16:00 +25°C° 0.7 mm 3 mps 731 mmHg 84%
17:00 +24°C° 0.7 mm 3 mps 731 mmHg 87%
18:00 +22°C° 0.4 mm 3 mps 731 mmHg 89%
19:00 +21°C° 0.4 mm 3 mps 731 mmHg 91%
20:00 +20°C° 0.4 mm 3 mps 731 mmHg 93%
21:00 +20°C° 0.2 mm 4 mps 731 mmHg 95%
22:00 +19°C° 0.2 mm 4 mps 730 mmHg 96%
23:00 +19°C° 0.2 mm 4 mps 730 mmHg 97%

14 Julio, Martes

Tiempo Temperatura Precipitaciones Viento Presión Humedad
00:00 +19°C° 0 mm 5 mps 731 mmHg 97%
01:00 +17°C° 0 mm 5 mps 731 mmHg 96%
02:00 +17°C° 0 mm 5 mps 731 mmHg 95%
03:00 +16°C° 0 mm 5 mps 731 mmHg 95%
04:00 +16°C° 0 mm 5 mps 731 mmHg 95%
05:00 +15°C° 0 mm 5 mps 731 mmHg 95%
06:00 +15°C° 0 mm 5 mps 732 mmHg 94%
07:00 +15°C° 0 mm 5 mps 732 mmHg 93%
08:00 +14°C° 0 mm 6 mps 732 mmHg 92%
09:00 +15°C° 0 mm 6 mps 732 mmHg 90%
10:00 +15°C° 0 mm 6 mps 733 mmHg 87%
11:00 +15°C° 0 mm 6 mps 733 mmHg 84%
12:00 +16°C° 0.1 mm 6 mps 733 mmHg 82%
13:00 +16°C° 0.1 mm 7 mps 733 mmHg 80%
14:00 +17°C° 0.1 mm 7 mps 734 mmHg 78%
15:00 +16°C° 0.1 mm 7 mps 734 mmHg 79%
16:00 +16°C° 0.1 mm 7 mps 734 mmHg 80%
17:00 +16°C° 0.1 mm 7 mps 734 mmHg 81%
18:00 +15°C° 0 mm 7 mps 734 mmHg 82%
19:00 +14°C° 0 mm 6 mps 734 mmHg 84%
20:00 +13°C° 0 mm 5 mps 734 mmHg 85%
21:00 +13°C° 0 mm 6 mps 734 mmHg 85%
22:00 +13°C° 0 mm 6 mps 734 mmHg 84%
23:00 +13°C° 0 mm 6 mps 734 mmHg 84%
Mostrar más